Regional Weather Roundup
Issued by NWS Albany, NY

Home | Current Version | Previous Version | Text Only | Print | Product List | Glossary On
Versions: 1 2 3 4 5 6 7 8 9 10 11 12 13 14 15 16 17 18 19 20 21 22 23 24 25 26 27 28 29 30 31 32 33 34 35 36 37 38 39 40 41 42 43 44 45 46 47 48 49 50
000
ASUS41 KALY 011510
RWRALY

NEW YORK STATE HOURLY WEATHER ROUNDUP
NATIONAL WEATHER SERVICE ALBANY NY
1100 AM EDT WED JUL 01 2015

NOTE: "FAIR" INDICATES FEW OR NO CLOUDS BELOW 12,000 FEET WITH NO
SIGNIFICANT WEATHER AND/OR NO OBSTRUCTIONS TO VISIBILITY.

NYZ032-033-038>043-046>054-057>066-NYZ062>081-011600-
EAST


CITY           SKY/WX    TMP DP  RH WIND       PRES   REMARKS
ALBANY         CLOUDY    70  65  84 S8        29.73S
GLENS FALLS    CLOUDY    67  64  90 S9        29.70F
POUGHKEEPSIE   PTSUNNY   74  66  76 S6        29.76R
NEWBURGH       PTSUNNY   72  66  83 W9        29.79R
MONTGOMERY     PTSUNNY   73  64  73 SW12      29.78R
WHITE PLAINS   PTSUNNY   74  64  71 W7        29.80R
ISLIP          PTSUNNY   75  65  70 SW14G22   29.79R
NEW YORK CITY  PTSUNNY   76  64  66 W9        29.80R
CENTRAL PARK   MOSUNNY   75  65  70 VRB3      29.82F
$$

NYZ005>009-017-018-044>046-055-056-011600-
CENTRAL


CITY           SKY/WX    TMP DP  RH WIND       PRES   REMARKS
FULTON         CLOUDY    68  63  84 SW8       29.71F
SYRACUSE       CLOUDY    70  63  78 SW10      29.71S
ROME           CLOUDY    66  62  87 W7        29.73S
ELMIRA         MOSUNNY   74  61  63 W17G23    29.74S
BINGHAMTON     CLOUDY    67  60  78 SW8       29.78S
MONTICELLO     CLOUDY    66  63  88 W9        29.82R
$$

NYZ026>034-041>043-011600-
NORTH


CITY           SKY/WX    TMP DP  RH WIND       PRES   REMARKS
WATERTOWN      FOG       62  61  96 SW12      29.70R VSB 1/2
FORT DRUM      NOT AVBL
MASSENA        LGT RAIN  67  64  90 S5        29.64F
SARANAC LAKE   CLOUDY    65  61  87 S9        29.68F
PLATTSBURGH    HVY RAIN  64  63  96 S6        29.67S FOG
$$

NYZ001>004-010>016-019>021-011600-
WEST


CITY           SKY/WX    TMP DP  RH WIND       PRES   REMARKS
NIAGARA FALLS  PTSUNNY   66  59  78 W14       29.76R
BUFFALO        CLOUDY    65  58  78 W12       29.76R
DUNKIRK        CLOUDY    63  59  87 W12       29.81R
JAMESTOWN      CLOUDY    63  55  77 W14       29.84R
WELLSVILLE     LGT RAIN  63  59  87 W12       29.82R FOG
ROCHESTER      CLOUDY    70  64  81 W12       29.72S
PENN YAN       LGT RAIN  69  61  75 W9G17     29.74S
$$

             KEY
       WCI = WIND CHILL INDEX
       VSB = VISIBILITY
       HX  = HEAT INDEX
$$


USA.gov is the U.S. government's official web portal to all federal, state and local government web resources and services.